Voltar ao catálogo

STARLINK-3554

AtivoComunicaçõesVLEO
NORAD 51872·PAYLOAD·🇺🇸 United States

Lançado Mar 3, 2022 de Cape Canaveral Space Force Station

Loading…

Próximas Passagens (próximas 24 horas)

TLE

AtualizadoSource: CelesTrak SupGP

Época: Sep 15, 2026, 01:53 UTC

1 51872C 22022W   26258.07895833 -.00026191  00000+0 -74934-3 0  2585
2 51872  53.1572 228.7271 0001285  92.0745 194.4655 15.35411304    12

Acompanhe STARLINK-3554 em tempo real com AllMySat

Download on the App Store